Terminal Aerodrome Forecast
Issued by NWS

Home | Current Version | Previous Version | Text Only | Print | Product List | Glossary On
Versions: 1 2 3 4 5 6 7 8 9 10 11 12 13 14 15 16
601
FTUS42 TJSJ 280521
TAFJSJ
TAF
TJSJ 280521Z 2806/2906 09005KT P6SM VCSH SCT030
     FM281300 08012KT P6SM SCT025
     FM281600 07014KT P6SM VCTS SCT025CB
     FM282200 10006KT P6SM SCT030=

USA.gov is the U.S. government's official web portal to all federal, state and local government web resources and services.